Hourly Data Report for September 01, 2017

All times are specified in Local Standard Time (LST). Add 1 hour to adjust for Daylight Saving Time where and when it is observed.

SUMMERSIDE
PRINCE EDWARD ISLAND

46°26'28.000" N
63°50'17.000" W
12.20 m
8300596
71702
WSD

Download Data

Hourly Data (September 2017)
Hourly Data Report for September 1, 2017
Temp Definition
°C
Dew Point Temp Definition
°C
Rel Hum Definition
%
Wind Dir Definition
10's deg

Wind Spd Definition
km/h
Visibility Definition
km
Stn Press Definition
kPa
Hmdx Definition


Wind Chill Definition


Weather Definition


TIME
00:00 12.8 9.6 81 24 9   100.19     LegendNANA
01:00 12.1 9.5 84 29 15   100.25     LegendNANA
02:00 10.9 7.7 81 31 8   100.27     LegendNANA
03:00 10.3 6.5 77 29 11   100.28     LegendNANA
04:00 9.8 6.2 78 27 11   100.32     LegendNANA
05:00 8.6 6.0 84 24 8   100.35     LegendNANA
06:00 8.7 6.9 88 25 8   100.37     LegendNANA
07:00 11.8 8.9 82 28 17   100.39     LegendNANA
08:00 12.2 8.2 76 27 24   100.40     LegendNANA
09:00 12.8 5.7 62 26 29   100.43     LegendNANA
10:00 12.5 5.7 63 27 24   100.44     LegendNANA
11:00 13.8 5.9 59 26 24   100.43     LegendNANA
12:00 14.4 6.0 57 26 24   100.40     LegendNANA
13:00 14.4 5.4 55 26 26   100.39     LegendNANA
14:00 17.2 4.8 44 25 28   100.34     LegendNANA
15:00 15.7 4.0 45 26 25   100.34     LegendNANA
16:00 14.1 6.0 58 29 29   100.41     LegendNANA
17:00 12.7 5.2 61 27 24   100.46     LegendNANA
18:00 12.0 4.8 61 29 22   100.49     LegendNANA
19:00 11.4 5.7 68 27 18   100.53     LegendNANA
20:00 11.0 6.3 73 27 11   100.59     LegendNANA
21:00 10.9 7.4 79 29 18   100.64     LegendNANA
22:00 10.1 7.3 83 28 12   100.67     LegendNANA
23:00 11.8 8.5 80 29 17   100.68     LegendNANA

Notes on Data Quality.

Legend

  • E = Estimated
  • M = Missing
  • NA = Not Available
  • ‡ = Partner data that is not subject to review by the National Climate Archives
Date modified: